Regional Weather Roundup
Issued by NWS Cleveland, OH

Home | Current Version | Previous Version | Graphics & Text | Print | Product List | Glossary On
Versions: 1 2 3 4 5 6 7 8 9 10 11 12 13 14 15 16 17 18 19 20 21 22 23 24 25 26 27 28 29 30 31 32 33 34 35 36 37 38 39 40 41 42 43 44 45 46 47 48 49 50
000
ASUS41 KCLE 080700
RWRCLE
OHIO REGIONAL WEATHER ROUNDUP
NATIONAL WEATHER SERVICE WILMINGTON, OH
300 AM EDT WED JUL 08 2015

NOTE: "FAIR" INDICATES FEW OR NO CLOUDS BELOW 12,000 FEET WITH NO
SIGNIFICANT WEATHER AND/OR OBSTRUCTIONS TO VISIBILITY.

OHZ001>008-015>018-024>027-034-035-043-044-080800-
   NORTHWEST OHIO

CITY           SKY/WX    TMP DP  RH WIND       PRES   REMARKS
DEFIANCE       PTCLDY    58  55  90 N3        30.07R
FINDLAY        CLOUDY    63  61  93 NE8       30.04S FOG
TOLEDO EXPRESS CLOUDY    61  58  90 NE6       30.06R
TOLEDO EXEC    CLOUDY    62  57  83 NE3       30.07R
LIMA           CLOUDY    62  60  93 N9        30.05R FOG
$$

OHZ009>014-019>023-028>033-038-089-080800-
   NORTHEAST OHIO

CITY           SKY/WX    TMP DP  RH WIND       PRES   REMARKS
CLE-HOPKINS    CLOUDY    62  58  86 N12       30.05S
CLE-LAKEFRONT  CLOUDY    64  57  78 N20       30.02S
CUY CO. ARPT   NOT AVBL
LORAIN-ELYRIA  CLOUDY    61  57  87 NE7       30.05R
ASHTABULA      CLOUDY    61  60  97 VRB3      30.02S
AKRON-CANTON   CLOUDY    63  60  90 N12       30.01S
WOOSTER        NOT AVBL
MANSFIELD      CLOUDY    60  60 100 N10       30.04R
YOUNGSTOWN     DRIZZLE   61  60  97 N14       30.01R FOG
$$

OHZ042-051>053-060>062-070>072-077>081-080800-
  SOUTHWEST OHIO

CITY           SKY/WX    TMP DP  RH WIND       PRES   REMARKS
CINC-COVINGTON CLOUDY    67  65  93 N3        30.04S
CINC-LUNKEN    CLOUDY    68  66  93 CALM      30.03S
HAMILTON       CLOUDY    67  64  90 NW5       30.04S
DAYTON         NOT AVBL
WRIGHT-PAT AFB NOT AVBL
DAYTON GENERAL CLOUDY    66  64  93 N7        30.03F
WILMINGTON     CLOUDY    69  65  86 NW8       30.03S
$$

OHZ036-037-039>041-045>050-054>059-063>069-073>076-082>088-080800-
  CENTRAL AND SOUTHEAST OHIO

CITY           SKY/WX    TMP DP  RH WIND       PRES   REMARKS
COLUMBUS       CLOUDY    66  66 100 N13       30.00R
OSU AIRPORT    CLOUDY    65  63  93 N10       30.01S
BOLTON FIELD   NOT AVBL
RICKENBACK AFB NOT AVBL
NEWARK         CLOUDY    66  64  93 N7        29.99R
MARION         CLOUDY    62  59  90 N9        30.04R
LANCASTER      CLOUDY    69  67  93 NW9       30.00R
ZANESVILLE     LGT RAIN  71  68  90 W3        29.97S FOG
NEW PHILLY     CLOUDY    65  65 100 N7        29.99R
$$


USA.gov is the U.S. government's official web portal to all federal, state and local government web resources and services.